Back to catalog

ONEWEB-0032

AliveCommunicationsPO
NORAD 45141·PAYLOAD·🇬🇧 United Kingdom

Launched Feb 6, 2020 from Baikonur Cosmodrome

Loading…

Next Passes (next 24 hours)

TLE

FreshSource: CelesTrak SupGP

Epoch: Sep 14, 2026, 16:03 UTC

1 45141C 20008L   26257.66889306  .00002970  00000+0  85194-2 0  2576
2 45141  87.8902  18.4540 0002164 110.1507   1.2253 13.10366641    16

Track ONEWEB-0032 in real time with AllMySat

Download on the App Store